Location: Unspecified
(0.0000°N, 0.0000°E)
Time: 22:36:52
(UTC+00:00)

MIDAS 4 DEB - Pass Details

Date: 22 December 2025
Orbit: 3362 x 3904 km, 95.8° (Epoch: 13 January)

Event Time Altitude Azimuth Distance (km) Brightness Sun altitude
Rises 03:20:27 0° 131° (SE) 8,071 ? -35.7°
Reaches altitude 10° 03:28:03 10° 114° (ESE) 7,009 ? -34.1°
Maximum altitude 03:39:37 18° 76° (ENE) 6,195 ? -31.5°
Drops below altitude 10° 03:50:38 10° 39° (NE) 6,800 ? -29.1°
Sets 03:57:24 0° 22° (NNE) 7,746 ? -27.6°
